Location: Contre
(49.7477°N, 2.0963°E)
Time: 00:12:03
(UTC+00:00)

IGS 5A - Pass Details

Date: 03 February 2023
Orbit: 578 x 583 km, 97.5° (Epoch: 10 March)

Event Time Altitude Azimuth Distance (km) Brightness Sun altitude
Exits shadow 18:20:10 25° 91° (E) 1,182 4.4 -14.8°
Maximum altitude 18:21:09 28° 66° (ENE) 1,102 4.3 -15.0°
Drops below altitude 10° 18:24:42 10° 7° (N) 1,910 5.9 -15.5°
Sets 18:27:04 0° 356° (N) 2,814 6.9 -15.9°
